GW3823 Weather Reports


Display with metric or nautical units.
time (UTC)temp
F
wind
direction
speed
MPH
gust
MPH
rain 1hr
in
rain 24hr
in
rain mn
in
humidity
%
barometer
mb
20260504011305 56 340 1.0 12.0 0.00 0.00 0.00 15 1007.7
20260504010805 58 78 7.0 12.0 0.00 0.00 0.00 25 1008.8
20260504010306 56 157 4.0 9.0 0.00 0.00 0.00 24 1007.3
20260504005806 58 65 4.0 12.0 0.00 0.00 0.00 17 1008.2
20260504004806 58 248 2.0 12.0 0.00 0.00 0.00 24 1008.1
20260504004306 60 132 3.0 8.0 0.00 0.00 0.00 25 1008.7
20260504003806 58 71 4.0 6.0 0.00 0.00 0.00 24 1007.7
20260504003305 59 95 3.0 8.0 0.00 0.00 0.00 24 1008.4
20260504002805 58 79 3.0 5.0 0.00 0.00 0.00 24 1007.7
20260504002305 59 327 2.0 10.0 0.00 0.00 0.00 23 1008.5
20260504001806 57 254 3.0 14.0 0.00 0.00 0.00 25 1007.2
20260504001305 59 51 6.0 13.0 0.00 0.00 0.00 24 1008.1
20260504000305 59 310 7.0 13.0 0.00 0.00 0.00 21 1008.1
20260503235306 67 89 5.0 13.0 0.00 0.00 0.00 23 1010.0
20260503234806 67 308 2.0 10.0 0.00 0.00 0.00 14 1007.2
20260503233805 67 195 4.0 14.0 0.00 0.00 0.00 24 1007.2
20260503233305 67 317 4.0 13.0 0.00 0.00 0.00 15 1007.1
20260503232306 67 202 2.0 12.0 0.00 0.00 0.00 15 1009.1
20260503231805 67 196 7.0 12.0 0.00 0.00 0.00 26 1008.0
20260503231305 67 159 5.0 12.0 0.00 0.00 0.00 25 1008.9
20260503230805 67 160 8.0 8.0 0.00 0.00 0.00 28 1008.1
20260503230305 67 160 8.0 8.0 0.00 0.00 0.00 16 1009.0
20260503225805 57 160 8.0 8.0 0.00 0.00 0.00 28 1011.7
20260503225305 59 160 8.0 9.0 0.00 0.00 0.00 19 1007.6
20260503224805 58 171 8.0 9.0 0.00 0.00 0.00 26 1011.9
20260503224305 59 171 8.0 12.0 0.00 0.00 0.00 26 1007.7
20260503223805 58 163 9.0 12.0 0.00 0.00 0.00 24 1007.5
20260503223306 59 156 10.0 16.0 0.00 0.00 0.00 24 1015.1
20260503222805 60 146 7.0 22.0 0.00 0.00 0.00 24 1007.5
20260503222305 60 167 5.0 15.0 0.00 0.00 0.00 25 1007.6
20260503221304 60 178 10.0 16.0 0.00 0.00 0.00 25 1007.8
20260503220805 60 175 6.0 16.0 0.00 0.00 0.00 14 1007.8
20260503220305 59 180 8.0 16.0 0.00 0.00 0.00 24 1007.9
20260503215804 61 181 6.0 20.0 0.00 0.00 0.00 13 1007.9
20260503215306 61 190 6.0 18.0 0.00 0.00 0.00 22 1007.9
20260503214805 62 154 9.0 20.0 0.00 0.00 0.00 22 1007.8
20260503214305 62 178 5.0 18.0 0.00 0.00 0.00 13 1008.1
20260503213805 62 271 7.0 23.0 0.00 0.00 0.00 20 1008.3
20260503212805 61 242 5.0 12.0 0.00 0.00 0.00 19 1008.1
20260503212306 61 24 2.0 13.0 0.00 0.00 0.00 19 1015.2
20260503211805 59 257 6.0 29.0 0.00 0.00 0.00 20 1008.4
20260503211305 59 161 7.0 24.0 0.00 0.00 0.00 20 1008.4
20260503210305 59 169 8.0 21.0 0.00 0.00 0.00 20 1013.3
20260503205806 60 167 7.0 30.0 0.00 0.00 0.00 18 1008.6
20260503205305 59 163 10.0 30.0 0.00 0.00 0.00 20 1008.7
20260503204806 61 148 12.0 25.0 0.00 0.00 0.00 18 1008.7
20260503204304 59 207 8.0 20.0 0.00 0.00 0.00 20 1008.7
20260503203805 62 257 9.0 20.0 0.00 0.00 0.00 18 1016.5
20260503203305 59 195 7.0 21.0 0.00 0.00 0.00 20 1008.5
20260503202305 59 193 3.0 21.0 0.00 0.00 0.00 20 1008.9
20260503201805 60 217 7.0 23.0 0.00 0.00 0.00 19 1008.8
20260503201305 62 157 10.0 21.0 0.00 0.00 0.00 18 1015.7
20260503200304 61 163 7.0 29.0 0.00 0.00 0.00 16 1009.0
20260503195805 67 172 8.0 22.0 0.00 0.00 0.00 20 1008.9
20260503195305 67 172 11.0 25.0 0.00 0.00 0.00 20 1008.9
20260503194305 67 184 10.0 22.0 0.00 0.00 0.00 21 1009.1
20260503193804 58 179 11.0 29.0 0.00 0.00 0.00 22 1013.0
20260503193305 67 136 6.0 24.0 0.00 0.00 0.00 23 1009.0
20260503192805 67 150 15.0 24.0 0.00 0.00 0.00 20 1017.4
20260503192305 67 353 8.0 15.0 0.00 0.00 0.00 22 1009.4
20260503191805 67 188 4.0 26.0 0.00 0.00 0.00 20 1017.1
20260503190805 67 166 6.0 29.0 0.00 0.00 0.00 21 1009.4
20260503190305 67 151 5.0 24.0 0.00 0.00 0.00 22 1017.1
20260503185805 66 176 6.0 16.0 0.00 0.00 0.00 22 1009.5
20260503185305 65 253 8.0 21.0 0.00 0.00 0.00 24 1009.4
20260503184805 65 164 10.0 24.0 0.00 0.00 0.00 22 1009.6
20260503183805 66 162 5.0 28.0 0.00 0.00 0.00 22 1009.6
20260503183305 65 183 8.0 21.0 0.00 0.00 0.00 21 1010.1
20260503182805 65 209 8.0 21.0 0.00 0.00 0.00 20 1009.7
20260503181305 65 166 14.0 35.0 0.00 0.00 0.00 21 1009.9
20260503180804 65 161 12.0 35.0 0.00 0.00 0.00 23 1009.8
20260503180305 65 176 9.0 24.0 0.00 0.00 0.00 25 1010.0
20260503175805 61 163 13.0 24.0 0.00 0.00 0.00 24 1009.9
20260503175305 61 207 3.0 24.0 0.00 0.00 0.00 25 1010.3
20260503174804 61 146 9.0 20.0 0.00 0.00 0.00 25 1015.3
20260503172804 61 155 12.0 23.0 0.00 0.00 0.00 26 1016.4
20260503171804 61 193 7.0 20.0 0.00 0.00 0.00 26 1016.5
20260503171305 61 206 7.0 26.0 0.00 0.00 0.00 26 1010.8
20260503170804 60 168 9.0 26.0 0.00 0.00 0.00 27 1010.6
20260503170304 60 195 9.0 22.0 0.00 0.00 0.00 27 1010.7
20260503150305 43 203 3.0 7.0 0.00 0.00 0.00 47 1020.1
20260503140305 35 173 3.0 6.0 0.00 0.00 0.00 63 1012.2
20260503131304 33 40 4.0 6.0 0.00 0.00 0.00 67 1012.6
20260503130804 32 37 4.0 5.0 0.00 0.00 0.00 68 1012.3
20260503130304 32 53 3.0 5.0 0.00 0.00 0.00 68 1012.5
20260503110305 32 35 4.0 6.0 0.00 0.00 0.00 67 1012.5
20260503090306 34 46 3.0 8.0 0.00 0.00 0.00 64 1012.4
20260503081306 36 120 2.0 7.0 0.00 0.00 0.00 62 1012.5
20260503080806 35 69 5.0 8.0 0.00 0.00 0.00 54 1017.7
20260503080306 36 59 5.0 8.0 0.00 0.00 0.00 60 1012.5
20260503072806 36 65 5.0 13.0 0.00 0.00 0.00 60 1012.8
20260503072306 35 60 9.0 13.0 0.00 0.00 0.00 61 1013.0
20260503071805 37 79 8.0 9.0 0.00 0.00 0.00 59 1012.9
20260503071306 36 72 5.0 9.0 0.00 0.00 0.00 58 1013.0
20260503070806 37 77 5.0 9.0 0.00 0.00 0.00 46 1021.1
20260503060306 39 67 5.0 12.0 0.00 0.00 0.00 54 1012.8
20260503054806 38 57 7.0 10.0 0.00 0.00 0.00 53 1012.7
20260503054306 40 65 5.0 7.0 0.00 0.00 0.00 52 1012.5
20260503053806 40 110 3.0 12.0 0.00 0.00 0.00 51 1012.5
20260503053305 41 58 7.0 12.0 0.00 0.00 0.00 51 1012.6
20260503052306 42 72 5.0 9.0 0.00 0.00 0.00 47 1012.5
20260503051806 42 70 6.0 9.0 0.00 0.00 0.00 35 1021.1
20260503051306 42 79 6.0 12.0 0.00 0.00 0.00 48 1012.5
20260503050806 41 72 7.0 13.0 0.00 0.00 0.00 49 1012.3
20260503045806 42 52 6.0 10.0 0.00 0.00 0.00 48 1012.4
20260503045305 44 70 8.0 13.0 0.00 0.00 0.00 48 1012.4
20260503044806 42 67 7.0 13.0 0.00 0.00 0.00 47 1012.3
20260503043306 44 67 7.0 12.0 0.00 0.00 0.00 34 1018.9
20260503042806 43 62 7.0 12.0 0.00 0.00 0.00 43 1012.3
20260503042305 46 102 4.0 12.0 0.00 0.00 0.00 42 1012.0
20260503041806 44 54 8.0 15.0 0.00 0.00 0.00 35 1017.9
20260503040806 44 61 7.0 15.0 0.00 0.00 0.00 43 1012.0
20260503040306 46 77 6.0 12.0 0.00 0.00 0.00 41 1012.0
20260503035805 43 88 7.0 13.0 0.00 0.00 0.00 25 1019.5
20260503034806 46 51 9.0 12.0 0.00 0.00 0.00 40 1011.8
20260503034305 47 70 9.0 14.0 0.00 0.00 0.00 40 1012.1
20260503033806 46 75 9.0 13.0 0.00 0.00 0.00 40 1011.8
20260503033306 48 44 6.0 15.0 0.00 0.00 0.00 39 1011.8
20260503032806 46 65 9.0 14.0 0.00 0.00 0.00 39 1011.9
20260503031805 47 68 6.0 12.0 0.00 0.00 0.00 38 1011.7
20260503031306 45 68 6.0 10.0 0.00 0.00 0.00 31 1015.4
20260503030805 48 86 7.0 15.0 0.00 0.00 0.00 37 1011.5
20260503030306 49 61 9.0 15.0 0.00 0.00 0.00 37 1011.5
20260503025805 46 53 6.0 10.0 0.00 0.00 0.00 38 1011.5
20260503025306 55 55 6.0 9.0 0.00 0.00 0.00 38 1011.4
20260503024806 46 53 5.0 9.0 0.00 0.00 0.00 38 1011.3
20260503024305 47 37 3.0 5.0 0.00 0.00 0.00 38 1011.4
20260503023806 47 187 1.0 2.0 0.00 0.00 0.00 22 1013.1
20260503022305 52 51 1.0 2.0 0.00 0.00 0.00 34 1010.9
20260503021805 51 151 0.0 3.0 0.00 0.00 0.00 24 1011.0
20260503020806 53 31 0.0 2.0 0.00 0.00 0.00 29 1010.9
20260503020306 54 46 0.0 2.0 0.00 0.00 0.00 25 1010.9
20260503015806 54 215 0.0 2.0 0.00 0.00 0.00 29 1016.0
20260503015306 55 12 1.0 3.0 0.00 0.00 0.00 28 1010.7
20260503014306 56 273 1.0 5.0 0.00 0.00 0.00 27 1010.7
20260503013805 55 317 1.0 5.0 0.00 0.00 0.00 25 1010.7
20260503013305 56 39 3.0 5.0 0.00 0.00 0.00 25 1016.4
20260503012805 56 306 2.0 5.0 0.00 0.00 0.00 24 1010.6
20260503012306 57 184 1.0 5.0 0.00 0.00 0.00 21 1010.5
20260503011805 56 255 1.0 5.0 0.00 0.00 0.00 22 1010.5